Theta_e
338 339 339 337 337 339 337 333 333 334 336 337 334 334 334 333 333 335 339 351 348 350 353 352 351 351 352 353 352 351 350 349 350 349 347 347 346 346 347 347 346 345 345
338 343 340 343 342 341 339 337 336 334 336 337 336 336 335 335 337 337 336 344 348 348 351 353 353 351 351 354 353 351 348 347 348 348 347 347 346 346 346 346 345 343 344
346 340 345 340 340 340 337 337 336 336 335 336 334 335 337 336 337 338 339 336 342 348 349 351 353 354 354 354 354 351 348 347 346 346 347 347 346 345 345 346 345 343 344
347 347 345 342 340 340 337 335 332 330 330 331 330 333 335 336 338 339 339 339 337 340 346 349 350 352 353 354 352 352 349 347 345 345 345 346 346 345 345 344 345 344 343
351 349 344 343 342 339 337 334 333 332 332 332 335 336 337 338 339 341 341 339 339 341 338 344 348 348 349 352 353 352 349 346 345 344 344 345 345 346 345 345 344 344 343
350 348 347 342 342 338 335 333 333 335 336 334 340 337 335 341 342 341 340 342 342 342 339 339 340 342 346 348 349 350 350 348 346 344 343 343 343 345 346 345 344 343 343
350 348 344 344 341 338 334 333 335 336 335 337 333 336 338 340 342 343 341 341 340 342 340 338 340 340 342 345 345 348 348 349 347 346 343 341 342 344 345 346 345 343 342
343 345 344 342 340 338 336 334 336 333 336 340 333 333 329 333 339 342 339 341 341 341 340 341 342 341 342 341 341 346 349 350 348 346 344 341 341 342 345 345 345 344 342
341 341 342 343 340 336 333 336 338 338 333 336 337 333 327 324 329 339 337 338 339 339 340 340 342 342 342 341 344 343 346 346 347 346 344 343 342 342 344 344 344 343 342
343 342 341 341 339 337 336 337 339 339 338 333 330 335 335 334 326 328 336 336 338 339 338 336 338 340 341 338 341 342 341 342 346 345 345 345 344 344 344 343 343 343 343
342 343 342 341 340 339 336 338 338 339 341 334 328 326 327 327 331 331 328 329 334 336 338 336 338 337 337 338 337 338 339 339 339 340 341 344 344 344 344 344 342 343 343
340 343 342 342 343 342 339 336 340 341 342 338 333 329 327 329 333 332 330 328 328 331 334 336 337 336 336 335 338 339 336 335 334 334 335 338 341 341 342 343 343 343 342
327 334 344 342 341 341 341 341 338 342 342 340 334 331 336 336 339 337 333 328 328 329 331 334 338 336 335 334 336 337 336 332 330 329 330 331 335 337 338 341 342 341 342
325 328 336 345 343 343 343 342 341 340 337 334 335 338 338 340 340 340 336 329 324 324 325 327 334 334 333 333 335 336 333 329 328 326 325 327 329 331 332 334 336 336 337
331 328 329 335 340 340 338 343 343 341 339 335 331 335 339 342 342 341 338 332 325 319 320 326 327 332 332 332 333 332 331 329 328 325 323 323 324 326 327 329 330 331 331
330 332 332 332 332 334 340 341 341 342 341 341 340 341 343 345 344 343 340 335 328 324 319 326 328 330 331 333 334 332 333 328 326 323 323 322 321 322 323 324 325 327 328
330 331 332 333 333 332 331 337 344 343 342 342 343 344 345 347 343 340 339 336 331 328 323 327 329 329 328 327 328 329 330 328 327 322 322 321 319 319 319 321 322 323 325
326 328 329 330 331 332 333 329 334 346 345 343 344 344 345 346 344 341 339 334 330 328 325 323 325 326 326 327 327 325 327 330 328 325 321 320 316 315 315 316 318 319 319
321 322 325 326 327 330 333 335 331 339 345 346 346 345 345 342 341 343 336 332 330 331 327 324 323 325 324 326 324 325 325 325 330 323 320 319 317 315 315 315 314 313 312
316 318 320 323 327 328 328 333 336 332 341 347 347 345 342 343 342 342 336 332 330 328 327 324 323 322 322 324 324 321 319 322 321 328 323 320 319 317 316 314 314 314 311
312 316 317 318 321 325 328 329 333 335 335 341 344 345 344 343 336 337 337 331 328 325 324 321 321 320 320 321 321 320 318 319 320 325 325 321 321 319 319 316 320 318 311
311 313 314 314 317 323 316 313 319 332 337 342 342 342 345 332 330 324 324 327 329 326 323 322 319 318 318 320 321 320 318 317 318 321 323 324 324 321 320 324 317 312 309
308 308 311 313 315 320 311 310 313 325 335 341 343 342 342 343 329 330 318 316 319 319 324 325 321 320 320 322 322 319 319 317 317 319 320 320 325 323 325 324 311 309 307
304 306 307 310 312 319 310 308 310 324 330 341 341 341 338 329 328 326 327 327 324 324 323 328 325 324 324 325 324 323 321 319 321 323 322 317 321 320 322 317 308 307 305
303 305 306 307 309 316 309 307 311 326 329 336 340 340 336 332 312 315 327 325 321 318 308 306 308 307 305 306 315 322 319 319 318 318 323 316 318 318 320 319 313 306 304
305 306 307 311 312 317 312 307 311 326 329 335 337 334 318 329 307 309 328 325 320 317 317 316 315 312 311 311 308 322 321 320 317 317 320 316 318 318 316 320 317 311 310
Wind_Speed
5 5 5 5 5 4 5 6 6 6 8 7 6 6 6 6 7 3 3 14 14 14 15 14 14 13 12 11 10 10 10 9 11 11 10 10 9 9 10 11 11 11 11
6 5 5 6 6 5 6 7 7 7 8 6 6 6 6 6 5 6 4 6 15 13 13 14 14 14 14 12 11 12 11 10 11 12 11 11 10 10 11 12 11 12 11
8 7 5 6 6 5 7 6 6 4 4 1 4 3 3 7 6 6 5 5 7 14 14 13 15 15 15 15 12 12 12 12 11 12 12 12 12 11 12 13 13 12 11
10 7 5 6 5 4 4 4 4 4 2 2 3 3 4 5 6 6 5 5 5 5 10 14 15 15 14 15 13 12 13 13 12 12 12 13 13 13 13 14 14 13 13
8 6 6 5 6 5 4 3 3 3 1 1 4 4 5 5 6 7 6 7 7 6 4 10 16 15 16 17 15 14 13 13 12 12 13 13 14 14 14 15 15 14 14
12 8 5 6 5 4 5 3 4 2 2 3 3 4 4 4 4 6 6 6 7 7 6 6 5 9 17 14 14 15 15 15 14 13 13 12 13 14 15 15 16 15 16
9 9 4 4 4 5 5 4 2 3 1 1 2 3 4 3 8 9 6 6 7 6 6 5 4 4 6 16 15 15 15 15 16 14 13 12 13 15 15 15 15 16 16
8 9 7 6 6 5 5 5 4 2 3 4 2 2 5 6 6 9 4 5 7 4 5 7 7 6 6 6 7 13 14 17 15 15 14 13 14 15 15 15 15 16 16
8 9 8 9 9 7 6 5 6 7 4 3 6 5 2 3 14 6 5 5 7 4 6 6 7 8 7 5 8 7 12 13 14 14 14 14 14 16 15 15 15 16 16
9 8 11 10 10 8 9 7 6 5 5 6 1 3 4 6 5 12 4 4 7 6 7 5 5 6 7 5 9 9 10 12 14 13 13 15 15 16 16 16 16 16 16
5 8 11 13 12 9 10 7 7 8 8 5 5 5 5 3 6 10 14 5 5 5 5 5 5 5 6 6 5 6 12 12 11 9 10 13 14 15 15 16 17 17 17
5 5 7 9 11 10 9 8 8 10 12 11 10 8 4 4 3 6 9 7 6 5 5 5 6 5 5 5 6 9 11 11 10 8 9 10 11 12 14 16 17 18 18
3 6 7 8 9 11 11 10 12 10 13 12 12 8 7 8 6 6 8 5 6 5 3 4 7 5 4 4 5 8 10 10 10 9 9 8 9 10 11 14 16 17 17
4 5 5 7 11 10 11 12 10 11 11 8 10 11 6 7 6 8 10 5 3 3 2 5 4 5 5 5 6 10 5 10 9 9 9 8 8 8 8 10 12 14 14
4 6 7 6 6 8 11 12 11 14 10 11 16 9 9 9 7 9 9 4 5 4 4 3 3 2 4 4 6 6 6 8 9 9 9 8 8 8 7 8 10 11 11
3 5 6 6 5 7 8 10 12 11 12 12 9 10 11 8 8 9 7 5 4 5 3 3 3 3 5 3 6 5 5 7 9 10 9 8 8 8 8 8 10 10 11
5 4 5 7 8 10 9 9 11 14 14 12 11 11 13 12 8 8 5 5 5 4 4 2 1 2 3 5 4 4 4 3 4 8 8 7 8 8 8 8 9 10 11
6 6 6 8 9 11 9 9 12 11 13 14 14 13 15 9 11 8 6 7 5 5 5 5 2 2 4 4 4 3 2 2 0 3 5 6 5 6 7 8 9 9 9
7 5 8 10 11 11 14 13 10 13 13 12 12 14 15 11 10 8 6 6 4 3 4 5 4 2 2 2 2 2 2 3 1 4 3 5 7 8 8 9 8 9 9
12 12 12 13 13 12 14 16 14 13 14 13 13 14 12 12 12 11 8 8 5 5 3 4 3 3 3 2 3 3 2 2 2 2 1 2 5 7 7 8 7 7 9
9 13 15 15 15 13 11 14 15 16 15 15 11 12 12 13 14 12 8 7 6 5 4 4 3 3 3 3 5 3 3 3 3 3 3 2 2 3 3 5 6 8 10
9 11 13 15 18 13 14 16 15 17 17 12 12 12 12 14 14 16 13 12 11 7 6 5 3 4 4 4 4 4 4 3 3 2 4 3 3 3 3 3 6 7 9
7 7 12 15 18 18 17 17 19 15 16 14 14 12 10 9 11 9 9 9 6 9 9 7 6 5 5 6 6 5 5 3 3 3 3 2 1 3 0 3 8 8 9
7 8 13 16 17 16 16 17 19 16 15 16 15 14 11 10 11 12 10 8 6 5 5 5 6 6 5 5 7 7 6 4 2 2 3 3 1 1 2 1 3 6 8
8 10 12 16 19 18 18 19 17 14 15 18 13 11 12 13 15 16 12 9 6 3 5 9 8 8 8 6 4 5 4 6 2 3 3 3 2 2 2 2 1 5 6
11 11 14 15 18 17 20 19 17 10 14 12 10 9 16 15 18 16 12 10 8 6 7 5 3 5 4 3 6 5 5 7 3 2 4 4 3 3 2 2 2 2 3
Wind_Direction
198 183 183 182 198 192 204 222 224 221 234 233 237 248 240 233 242 234 192 190 195 199 206 204 202 203 207 210 217 223 218 212 209 212 203 209 208 213 208 210 209 199 199
195 205 181 189 205 196 206 220 216 220 228 205 218 225 244 249 253 246 227 205 204 207 211 211 209 208 214 211 216 224 225 213 211 214 205 210 209 207 206 204 207 209 194
197 191 197 206 197 205 194 226 245 238 256 195 250 259 259 249 251 240 238 207 215 212 216 218 216 212 215 216 214 217 220 216 211 216 209 205 210 206 206 206 207 207 190
191 187 191 211 214 221 221 223 216 249 242 171 255 256 263 261 254 249 237 234 215 208 220 219 219 218 221 222 223 225 222 219 210 211 216 206 209 207 205 209 210 211 201
180 183 197 206 204 208 226 235 258 222 359 327 263 258 254 248 253 254 229 229 230 223 196 215 216 211 215 222 222 229 228 219 214 211 215 208 210 208 207 210 215 217 208
202 185 197 205 182 213 219 207 220 87 133 224 264 263 264 273 256 245 224 229 232 228 222 195 208 215 217 217 219 227 232 223 211 213 211 209 213 209 207 212 217 216 210
190 200 211 205 199 198 216 194 157 132 210 223 341 305 253 249 245 240 231 232 241 222 228 204 204 204 203 211 221 225 234 223 218 214 207 206 215 213 209 213 215 216 211
175 183 190 209 202 217 216 206 154 188 185 182 171 260 348 347 314 254 244 227 239 217 233 224 201 204 196 205 213 216 221 226 219 223 209 205 214 216 209 211 210 210 208
195 189 191 215 215 201 202 194 170 181 181 210 171 179 63 95 305 311 271 247 237 216 239 227 204 199 204 205 211 209 219 222 223 226 217 208 212 216 209 208 205 206 210
205 180 199 207 218 218 214 195 182 192 163 196 173 204 173 170 242 296 298 267 250 231 228 223 211 205 199 203 203 193 214 210 221 223 217 208 209 212 209 211 204 206 213
251 208 205 211 216 222 219 178 173 198 204 173 157 203 192 207 216 243 274 277 282 249 220 212 221 214 200 184 201 202 203 205 203 215 215 208 208 209 212 213 209 204 211
229 218 223 218 208 213 215 208 212 197 204 198 194 194 180 190 225 231 248 243 240 258 208 221 208 216 213 193 201 190 192 191 191 197 212 212 212 209 214 215 215 207 213
252 259 202 218 228 222 218 202 213 208 214 209 205 205 180 204 216 236 236 246 246 248 243 234 225 203 205 199 194 159 176 186 181 184 211 220 209 213 217 217 217 210 210
231 261 259 219 228 228 224 222 212 212 218 217 228 225 200 208 198 223 235 196 285 283 273 236 229 204 178 185 182 156 169 185 179 186 205 213 201 216 220 218 214 211 206
216 236 233 221 231 218 229 222 216 214 211 225 240 241 225 226 209 226 219 187 166 243 251 257 207 183 150 160 169 161 181 204 184 184 201 209 202 216 215 220 220 211 200
287 287 299 278 251 251 257 223 226 216 209 229 237 232 233 232 223 224 219 196 189 196 209 198 245 145 145 146 161 154 179 184 193 189 197 201 200 207 212 219 217 212 202
293 284 275 277 271 253 243 243 233 223 208 223 221 224 233 222 214 228 201 203 185 191 160 284 121 94 115 140 135 113 135 173 211 203 203 200 202 203 205 214 213 209 202
246 240 247 262 271 279 260 233 247 232 211 220 227 228 233 215 210 200 201 206 195 216 141 170 165 172 138 173 159 151 189 215 113 194 201 217 210 211 207 214 212 203 199
286 276 271 266 268 271 278 265 241 253 240 226 223 214 224 204 212 206 191 197 214 203 165 150 167 170 151 148 143 128 166 239 180 135 189 225 225 220 214 213 207 198 192
303 295 286 282 273 268 270 282 270 247 248 238 223 211 206 205 210 202 188 195 204 169 163 144 143 142 125 146 127 151 192 242 237 183 121 243 210 213 201 207 208 191 205
272 284 284 282 280 272 271 273 269 260 247 243 212 208 204 205 201 188 175 191 176 164 148 152 145 125 155 149 184 178 174 207 211 191 150 176 154 181 182 193 207 203 198
253 266 275 281 280 276 265 265 272 266 244 231 219 219 208 191 188 177 168 167 174 166 170 146 207 156 186 172 157 166 165 174 210 237 178 156 168 187 175 182 199 200 199
225 253 270 279 273 268 259 263 269 270 257 233 221 222 198 195 168 162 148 138 147 179 164 160 156 173 176 190 157 165 188 170 188 206 121 138 228 139 111 182 188 198 201
221 241 265 271 275 275 255 259 267 272 260 231 220 208 184 164 162 152 145 139 146 117 132 137 162 178 180 179 179 180 180 144 82 107 112 156 201 143 106 53 183 193 187
232 250 258 265 264 269 261 258 261 269 254 236 220 178 171 158 163 150 147 144 137 122 47 86 106 126 134 158 177 128 156 153 150 185 181 128 164 154 159 207 176 176 186
246 255 257 255 260 262 258 252 256 258 250 233 207 166 164 158 164 161 151 152 157 175 140 124 108 85 120 109 170 186 154 174 154 146 206 134 147 158 195 197 170 163 169